Time,TemperatureF,DewpointF,PressureIn,WindDirection,WindDirectionDegrees,WindSpeedMPH,WindSpeedGustMPH,Humidity,HourlyPrecipIn,Conditions,Clouds,dailyrainin,SoftwareType,DateUTC
2013-02-07 00:00:00,32.5,29.3,30.18,NE,56,0.0,1.0,88,0.00,,,0.00,Wunderground v.1.15,2013-02-07 05:00:00,
2013-02-07 00:10:00,32.6,29.7,30.18,NE,55,0.0,0.0,89,0.00,,,0.00,Wunderground v.1.15,2013-02-07 05:10:00,
2013-02-07 00:20:00,32.8,29.6,30.17,NE,55,0.0,2.0,88,0.00,,,0.00,Wunderground v.1.15,2013-02-07 05:20:00,
2013-02-07 00:30:00,32.9,29.5,30.17,NE,56,0.0,0.0,87,0.00,,,0.00,Wunderground v.1.15,2013-02-07 05:30:00,
2013-02-07 00:40:00,32.9,29.5,30.17,NE,55,0.0,0.0,87,0.00,,,0.00,Wunderground v.1.15,2013-02-07 05:40:00,
2013-02-07 00:50:00,33.2,29.8,30.17,NE,55,0.0,2.0,87,0.00,,,0.00,Wunderground v.1.15,2013-02-07 05:50:00,
2013-02-07 01:00:00,32.3,28.9,30.16,NE,55,2.0,3.0,87,0.00,,,0.00,Wunderground v.1.15,2013-02-07 06:00:00,
2013-02-07 01:10:00,31.9,29.0,30.16,NE,55,2.0,2.0,89,0.00,,,0.00,Wunderground v.1.15,2013-02-07 06:10:00,
2013-02-07 01:20:00,32.6,29.4,30.16,NE,53,1.0,1.0,88,0.00,,,0.00,Wunderground v.1.15,2013-02-07 06:20:00,
2013-02-07 01:30:00,33.0,29.6,30.16,NE,53,1.0,1.0,87,0.00,,,0.00,Wunderground v.1.15,2013-02-07 06:30:00,
2013-02-07 01:40:00,33.2,29.5,30.15,NE,53,1.0,1.0,86,0.00,,,0.00,Wunderground v.1.15,2013-02-07 06:40:00,
2013-02-07 01:50:00,33.5,30.0,30.15,NE,53,0.0,0.0,87,0.00,,,0.00,Wunderground v.1.15,2013-02-07 06:50:00,
2013-02-07 02:00:00,33.4,29.9,30.15,NE,53,0.0,0.0,87,0.00,,,0.00,Wunderground v.1.15,2013-02-07 07:00:00,
2013-02-07 02:10:00,33.5,30.3,30.16,NE,53,0.0,0.0,88,0.00,,,0.00,Wunderground v.1.15,2013-02-07 07:10:00,
2013-02-07 02:20:00,33.4,29.9,30.17,NE,53,0.0,0.0,87,0.00,,,0.00,Wunderground v.1.15,2013-02-07 07:20:00,
2013-02-07 02:30:00,32.8,29.6,30.17,NE,53,0.0,1.0,88,0.00,,,0.00,Wunderground v.1.15,2013-02-07 07:30:00,
2013-02-07 02:40:00,32.6,30.0,30.17,NE,53,0.0,0.0,90,0.00,,,0.00,Wunderground v.1.15,2013-02-07 07:40:00,
2013-02-07 02:50:00,32.9,30.3,30.16,NE,53,0.0,0.0,90,0.00,,,0.00,Wunderground v.1.15,2013-02-07 07:50:00,
2013-02-07 03:00:00,33.2,30.3,30.15,NE,53,0.0,0.0,89,0.00,,,0.00,Wunderground v.1.15,2013-02-07 08:00:00,
2013-02-07 03:10:00,32.9,29.7,30.15,NE,53,0.0,0.0,88,0.00,,,0.00,Wunderground v.1.15,2013-02-07 08:10:00,
2013-02-07 03:20:00,33.2,30.3,30.15,NE,53,0.0,0.0,89,0.00,,,0.00,Wunderground v.1.15,2013-02-07 08:20:00,
2013-02-07 03:30:00,33.1,29.9,30.15,NE,53,0.0,0.0,88,0.00,,,0.00,Wunderground v.1.15,2013-02-07 08:30:00,
2013-02-07 03:40:00,33.0,29.8,30.15,NE,53,0.0,1.0,88,0.00,,,0.00,Wunderground v.1.15,2013-02-07 08:40:00,
2013-02-07 03:50:00,33.1,30.2,30.15,NE,53,0.0,0.0,89,0.00,,,0.00,Wunderground v.1.15,2013-02-07 08:50:00,
2013-02-07 04:00:00,33.1,29.9,30.15,NE,53,0.0,0.0,88,0.00,,,0.00,Wunderground v.1.15,2013-02-07 09:00:00,
2013-02-07 04:10:00,33.0,30.1,30.14,NE,53,0.0,0.0,89,0.00,,,0.00,Wunderground v.1.15,2013-02-07 09:10:00,
2013-02-07 04:20:00,33.2,30.6,30.14,NE,53,0.0,0.0,90,0.00,,,0.00,Wunderground v.1.15,2013-02-07 09:20:00,
2013-02-07 04:30:00,33.2,30.3,30.13,NE,53,0.0,0.0,89,0.00,,,0.00,Wunderground v.1.15,2013-02-07 09:30:00,
2013-02-07 04:40:00,33.4,30.5,30.12,NE,53,0.0,0.0,89,0.00,,,0.00,Wunderground v.1.15,2013-02-07 09:40:00,
2013-02-07 04:50:00,33.4,30.2,30.12,NE,53,0.0,2.0,88,0.00,,,0.00,Wunderground v.1.15,2013-02-07 09:50:00,
2013-02-07 05:00:00,33.5,30.3,30.12,NNE,13,1.0,1.0,88,0.00,,,0.00,Wunderground v.1.15,2013-02-07 10:00:00,
2013-02-07 05:10:00,33.8,30.6,30.12,NNE,13,1.0,1.0,88,0.00,,,0.00,Wunderground v.1.15,2013-02-07 10:10:00,
2013-02-07 05:20:00,33.5,30.3,30.13,NW,325,2.0,3.0,88,0.00,,,0.00,Wunderground v.1.15,2013-02-07 10:20:00,
2013-02-07 05:30:00,33.8,30.3,30.13,NNE,21,1.0,2.0,87,0.00,,,0.00,Wunderground v.1.15,2013-02-07 10:30:00,
2013-02-07 05:40:00,33.3,30.1,30.12,South,174,2.0,2.0,88,0.00,,,0.00,Wunderground v.1.15,2013-02-07 10:40:00,
2013-02-07 05:50:00,33.5,30.3,30.12,North,360,1.0,3.0,88,0.00,,,0.00,Wunderground v.1.15,2013-02-07 10:50:00,
2013-02-07 06:00:00,33.6,30.4,30.11,NE,45,2.0,2.0,88,0.00,,,0.00,Wunderground v.1.15,2013-02-07 11:00:00,
2013-02-07 06:10:00,33.4,30.2,30.12,NE,45,1.0,1.0,88,0.00,,,0.00,Wunderground v.1.15,2013-02-07 11:10:00,
2013-02-07 06:20:00,33.8,30.3,30.12,NE,45,1.0,1.0,87,0.00,,,0.00,Wunderground v.1.15,2013-02-07 11:20:00,
2013-02-07 06:30:00,34.1,30.6,30.12,NE,45,1.0,1.0,87,0.00,,,0.00,Wunderground v.1.15,2013-02-07 11:30:00,
2013-02-07 06:40:00,34.2,30.7,30.12,NE,45,1.0,1.0,87,0.00,,,0.00,Wunderground v.1.15,2013-02-07 11:40:00,
2013-02-07 06:50:00,34.5,31.0,30.11,NE,45,0.0,0.0,87,0.00,,,0.00,Wunderground v.1.15,2013-02-07 11:50:00,
2013-02-07 07:00:00,34.7,30.9,30.11,NE,45,0.0,0.0,86,0.00,,,0.00,Wunderground v.1.15,2013-02-07 12:00:00,
2013-02-07 07:10:00,34.8,31.0,30.11,NE,45,0.0,0.0,86,0.00,,,0.00,Wunderground v.1.15,2013-02-07 12:10:00,
2013-02-07 07:20:00,34.8,31.0,30.11,NE,45,0.0,0.0,86,0.00,,,0.00,Wunderground v.1.15,2013-02-07 12:20:00,
2013-02-07 07:30:00,34.8,31.3,30.10,NE,45,0.0,0.0,87,0.00,,,0.00,Wunderground v.1.15,2013-02-07 12:30:00,
2013-02-07 07:40:00,34.6,30.8,30.09,NE,45,0.0,0.0,86,0.00,,,0.00,Wunderground v.1.15,2013-02-07 12:40:00,
2013-02-07 07:50:00,34.3,31.1,30.09,NE,45,0.0,0.0,88,0.00,,,0.00,Wunderground v.1.15,2013-02-07 12:50:00,
2013-02-07 08:00:00,34.2,30.7,30.10,NE,45,0.0,0.0,87,0.00,,,0.00,Wunderground v.1.15,2013-02-07 13:00:00,
2013-02-07 08:10:00,34.2,30.7,30.09,NE,45,0.0,0.0,87,0.00,,,0.00,Wunderground v.1.15,2013-02-07 13:10:00,
2013-02-07 08:20:00,34.0,30.5,30.08,NE,45,0.0,0.0,87,0.00,,,0.00,Wunderground v.1.15,2013-02-07 13:20:00,
2013-02-07 08:30:00,33.0,29.8,30.09,NE,44,1.0,2.0,88,0.00,,,0.00,Wunderground v.1.15,2013-02-07 13:30:00,
2013-02-07 08:40:00,33.1,30.2,30.08,NE,44,1.0,1.0,89,0.00,,,0.00,Wunderground v.1.15,2013-02-07 13:40:00,
2013-02-07 08:50:00,33.5,30.6,30.08,NE,44,0.0,0.0,89,0.00,,,0.00,Wunderground v.1.15,2013-02-07 13:50:00,
2013-02-07 09:00:00,34.1,30.9,30.08,NE,44,0.0,0.0,88,0.00,,,0.00,Wunderground v.1.15,2013-02-07 14:00:00,
2013-02-07 09:10:00,35.2,31.4,30.08,NE,44,0.0,2.0,86,0.00,,,0.00,Wunderground v.1.15,2013-02-07 14:10:00,
2013-02-07 09:20:00,36.0,31.6,30.08,NE,49,1.0,1.0,84,0.00,,,0.00,Wunderground v.1.15,2013-02-07 14:20:00,
2013-02-07 09:30:00,37.0,32.6,30.08,NE,49,0.0,0.0,84,0.00,,,0.00,Wunderground v.1.15,2013-02-07 14:30:00,
2013-02-07 09:40:00,38.4,32.8,30.08,NE,49,0.0,0.0,80,0.00,,,0.00,Wunderground v.1.15,2013-02-07 14:40:00,
2013-02-07 09:50:00,39.8,33.5,30.08,NE,50,0.0,0.0,78,0.00,,,0.00,Wunderground v.1.15,2013-02-07 14:50:00,
2013-02-07 10:00:00,40.7,33.4,30.08,SE,130,1.0,1.0,75,0.00,,,0.00,Wunderground v.1.15,2013-02-07 15:00:00,
2013-02-07 10:10:00,41.2,33.5,30.08,SW,223,1.0,1.0,74,0.00,,,0.00,Wunderground v.1.15,2013-02-07 15:10:00,
2013-02-07 10:20:00,41.6,34.3,30.08,South,175,1.0,1.0,75,0.00,,,0.00,Wunderground v.1.15,2013-02-07 15:20:00,
2013-02-07 10:30:00,42.3,34.3,30.07,South,175,2.0,3.0,73,0.00,,,0.00,Wunderground v.1.15,2013-02-07 15:30:00,
2013-02-07 10:40:00,42.7,33.9,30.07,SSW,211,3.0,3.0,71,0.00,,,0.00,Wunderground v.1.15,2013-02-07 15:40:00,
2013-02-07 10:50:00,43.7,34.6,30.07,SSW,211,3.0,3.0,70,0.00,,,0.00,Wunderground v.1.15,2013-02-07 15:50:00,
2013-02-07 11:00:00,44.7,35.1,30.06,SE,131,1.0,3.0,69,0.00,,,0.00,Wunderground v.1.15,2013-02-07 16:00:00,
2013-02-07 11:10:00,45.4,34.7,30.05,South,190,2.0,4.0,66,0.00,,,0.00,Wunderground v.1.15,2013-02-07 16:10:00,
2013-02-07 11:20:00,46.0,35.3,30.05,SE,137,2.0,2.0,66,0.00,,,0.00,Wunderground v.1.15,2013-02-07 16:20:00,
2013-02-07 11:30:00,47.3,35.7,30.04,SW,227,2.0,2.0,64,0.00,,,0.00,Wunderground v.1.15,2013-02-07 16:30:00,
2013-02-07 11:40:00,48.1,36.1,30.04,SSW,203,2.0,2.0,63,0.00,,,0.00,Wunderground v.1.15,2013-02-07 16:40:00,
2013-02-07 11:50:00,48.4,36.0,30.04,South,171,3.0,3.0,62,0.00,,,0.00,Wunderground v.1.15,2013-02-07 16:50:00,
2013-02-07 12:00:00,49.5,36.6,30.03,South,178,2.0,2.0,61,0.00,,,0.00,Wunderground v.1.15,2013-02-07 17:00:00,
2013-02-07 12:10:00,50.3,37.4,30.02,SW,215,2.0,2.0,61,0.00,,,0.00,Wunderground v.1.15,2013-02-07 17:10:00,
2013-02-07 12:20:00,51.0,37.6,30.01,SSE,150,2.0,3.0,60,0.00,,,0.00,Wunderground v.1.15,2013-02-07 17:20:00,
2013-02-07 12:30:00,51.8,37.5,30.01,South,172,1.0,3.0,58,0.00,,,0.00,Wunderground v.1.15,2013-02-07 17:30:00,
2013-02-07 12:40:00,52.8,39.3,30.00,SSE,162,2.0,3.0,60,0.00,,,0.00,Wunderground v.1.15,2013-02-07 17:40:00,
2013-02-07 12:50:00,53.3,37.5,29.99,South,177,3.0,4.0,55,0.00,,,0.00,Wunderground v.1.15,2013-02-07 17:50:00,
2013-02-07 13:00:00,54.4,38.1,29.98,SW,225,3.0,3.0,54,0.00,,,0.00,Wunderground v.1.15,2013-02-07 18:00:00,
2013-02-07 13:10:00,55.3,38.4,29.97,SSE,150,2.0,2.0,53,0.00,,,0.00,Wunderground v.1.15,2013-02-07 18:10:00,
2013-02-07 13:20:00,55.6,38.7,29.96,South,186,2.0,2.0,53,0.00,,,0.00,Wunderground v.1.15,2013-02-07 18:20:00,
2013-02-07 13:30:00,56.9,39.4,29.95,SE,130,2.0,2.0,52,0.00,,,0.00,Wunderground v.1.15,2013-02-07 18:30:00,
2013-02-07 13:40:00,57.4,39.9,29.94,SW,220,3.0,3.0,52,0.00,,,0.00,Wunderground v.1.15,2013-02-07 18:40:00,
2013-02-07 13:50:00,58.4,40.3,29.95,SW,236,1.0,4.0,51,0.00,,,0.00,Wunderground v.1.15,2013-02-07 18:50:00,
2013-02-07 14:00:00,59.4,39.1,29.94,SSW,203,2.0,4.0,47,0.00,,,0.00,Wunderground v.1.15,2013-02-07 19:00:00,
2013-02-07 14:10:00,60.0,40.2,29.93,SSE,156,4.0,5.0,48,0.00,,,0.00,Wunderground v.1.15,2013-02-07 19:10:00,
2013-02-07 14:20:00,60.5,39.6,29.92,East,84,2.0,2.0,46,0.00,,,0.00,Wunderground v.1.15,2013-02-07 19:20:00,
2013-02-07 14:30:00,61.1,39.6,29.92,SSW,192,3.0,3.0,45,0.00,,,0.00,Wunderground v.1.15,2013-02-07 19:30:00,
2013-02-07 14:40:00,61.7,39.6,29.91,East,80,2.0,2.0,44,0.00,,,0.00,Wunderground v.1.15,2013-02-07 19:40:00,
2013-02-07 14:50:00,62.4,39.6,29.91,SSE,159,1.0,1.0,43,0.00,,,0.00,Wunderground v.1.15,2013-02-07 19:50:00,
2013-02-07 15:00:00,63.2,40.3,29.91,SW,216,1.0,3.0,43,0.00,,,0.00,Wunderground v.1.15,2013-02-07 20:00:00,
2013-02-07 15:10:00,63.8,39.0,29.90,WSW,240,3.0,3.0,40,0.00,,,0.00,Wunderground v.1.15,2013-02-07 20:10:00,
2013-02-07 15:20:00,64.3,40.1,29.90,South,171,3.0,6.0,41,0.00,,,0.00,Wunderground v.1.15,2013-02-07 20:20:00,
2013-02-07 15:30:00,63.8,39.6,29.90,SSE,167,6.0,6.0,41,0.00,,,0.00,Wunderground v.1.15,2013-02-07 20:30:00,
2013-02-07 15:40:00,64.2,39.4,29.90,South,182,4.0,8.0,40,0.00,,,0.00,Wunderground v.1.15,2013-02-07 20:40:00,
2013-02-07 15:50:00,64.6,41.0,29.89,SSW,203,4.0,4.0,42,0.00,,,0.00,Wunderground v.1.15,2013-02-07 20:50:00,
2013-02-07 16:00:00,65.0,43.1,29.88,South,184,4.0,4.0,45,0.00,,,0.00,Wunderground v.1.15,2013-02-07 21:00:00,
2013-02-07 16:10:00,64.9,44.2,29.88,SW,232,6.0,6.0,47,0.00,,,0.00,Wunderground v.1.15,2013-02-07 21:10:00,
2013-02-07 16:20:00,64.7,44.0,29.88,WSW,256,7.0,7.0,47,0.00,,,0.00,Wunderground v.1.15,2013-02-07 21:20:00,
2013-02-07 16:30:00,64.4,44.3,29.88,SW,219,5.0,5.0,48,0.00,,,0.00,Wunderground v.1.15,2013-02-07 21:30:00,
2013-02-07 16:40:00,63.9,44.4,29.87,West,267,5.0,7.0,49,0.00,,,0.00,Wunderground v.1.15,2013-02-07 21:40:00,
2013-02-07 16:50:00,63.5,44.5,29.87,SW,226,5.0,5.0,50,0.00,,,0.00,Wunderground v.1.15,2013-02-07 21:50:00,
2013-02-07 17:00:00,63.2,44.2,29.86,SSW,202,4.0,4.0,50,0.00,,,0.00,Wunderground v.1.15,2013-02-07 22:00:00,
2013-02-07 17:10:00,63.0,44.6,29.86,SW,224,3.0,4.0,51,0.00,,,0.00,Wunderground v.1.15,2013-02-07 22:10:00,
2013-02-07 17:20:00,62.5,44.6,29.86,SSW,207,5.0,5.0,52,0.00,,,0.00,Wunderground v.1.15,2013-02-07 22:20:00,
2013-02-07 17:30:00,62.3,44.4,29.86,WSW,250,4.0,4.0,52,0.00,,,0.00,Wunderground v.1.15,2013-02-07 22:30:00,
2013-02-07 17:40:00,61.7,44.9,29.85,SSW,205,3.0,3.0,54,0.00,,,0.00,Wunderground v.1.15,2013-02-07 22:40:00,
2013-02-07 17:50:00,61.3,44.5,29.86,SW,226,3.0,3.0,54,0.00,,,0.00,Wunderground v.1.15,2013-02-07 22:50:00,
2013-02-07 18:00:00,60.8,44.5,29.85,SW,232,3.0,3.0,55,0.00,,,0.00,Wunderground v.1.15,2013-02-07 23:00:00,
2013-02-07 18:10:00,60.2,44.4,29.85,SSW,199,2.0,2.0,56,0.00,,,0.00,Wunderground v.1.15,2013-02-07 23:10:00,
2013-02-07 18:20:00,59.4,44.6,29.85,SSW,209,2.0,2.0,58,0.00,,,0.00,Wunderground v.1.15,2013-02-07 23:20:00,
2013-02-07 18:30:00,59.1,44.3,29.85,SW,216,3.0,3.0,58,0.00,,,0.00,Wunderground v.1.15,2013-02-07 23:30:00,
2013-02-07 18:40:00,58.6,44.3,29.84,SSW,205,2.0,2.0,59,0.00,,,0.00,Wunderground v.1.15,2013-02-07 23:40:00,
2013-02-07 18:50:00,58.3,44.5,29.85,SW,217,1.0,2.0,60,0.00,,,0.00,Wunderground v.1.15,2013-02-07 23:50:00,
2013-02-07 19:00:00,57.4,44.1,29.85,WSW,240,1.0,1.0,61,0.00,,,0.00,Wunderground v.1.15,2013-02-08 00:00:00,
2013-02-07 19:10:00,56.9,44.0,29.85,WSW,240,0.0,0.0,62,0.00,,,0.00,Wunderground v.1.15,2013-02-08 00:10:00,
2013-02-07 19:20:00,56.5,44.5,29.85,WSW,240,0.0,0.0,64,0.00,,,0.00,Wunderground v.1.15,2013-02-08 00:20:00,
2013-02-07 19:30:00,55.5,43.9,29.85,WSW,240,0.0,0.0,65,0.00,,,0.00,Wunderground v.1.15,2013-02-08 00:30:00,
2013-02-07 19:40:00,54.3,43.6,29.84,WSW,240,0.0,0.0,67,0.00,,,0.00,Wunderground v.1.15,2013-02-08 00:40:00,
2013-02-07 19:50:00,54.1,44.2,29.84,WSW,240,0.0,0.0,69,0.00,,,0.00,Wunderground v.1.15,2013-02-08 00:50:00,
2013-02-07 20:00:00,53.8,44.2,29.84,WSW,240,0.0,0.0,70,0.00,,,0.00,Wunderground v.1.15,2013-02-08 01:00:00,
2013-02-07 20:10:00,53.1,43.6,29.83,WSW,240,0.0,0.0,70,0.00,,,0.00,Wunderground v.1.15,2013-02-08 01:10:00,
2013-02-07 20:20:00,53.0,44.2,29.83,WSW,240,0.0,0.0,72,0.00,,,0.00,Wunderground v.1.15,2013-02-08 01:20:00,
2013-02-07 20:30:00,52.7,43.9,29.83,WSW,240,0.0,0.0,72,0.00,,,0.00,Wunderground v.1.15,2013-02-08 01:30:00,
2013-02-07 20:40:00,52.4,44.0,29.83,WSW,240,0.0,0.0,73,0.00,,,0.00,Wunderground v.1.15,2013-02-08 01:40:00,
2013-02-07 20:50:00,52.1,43.7,29.82,WSW,240,0.0,0.0,73,0.00,,,0.00,Wunderground v.1.15,2013-02-08 01:50:00,
2013-02-07 21:00:00,51.8,43.1,29.82,WSW,240,0.0,0.0,72,0.00,,,0.00,Wunderground v.1.15,2013-02-08 02:00:00,
2013-02-07 21:10:00,51.2,42.8,29.82,WSW,240,0.0,0.0,73,0.00,,,0.00,Wunderground v.1.15,2013-02-08 02:10:00,
2013-02-07 21:20:00,51.0,43.0,29.81,WSW,240,0.0,0.0,74,0.00,,,0.00,Wunderground v.1.15,2013-02-08 02:20:00,
2013-02-07 21:30:00,50.9,43.3,29.81,WSW,240,0.0,1.0,75,0.00,,,0.00,Wunderground v.1.15,2013-02-08 02:30:00,
2013-02-07 21:40:00,50.9,43.3,29.81,WSW,240,0.0,0.0,75,0.00,,,0.00,Wunderground v.1.15,2013-02-08 02:40:00,
2013-02-07 21:50:00,51.1,43.4,29.81,WSW,239,0.0,0.0,75,0.00,,,0.00,Wunderground v.1.15,2013-02-08 02:50:00,
2013-02-07 22:00:00,52.0,44.0,29.81,SW,219,2.0,3.0,74,0.00,,,0.00,Wunderground v.1.15,2013-02-08 03:00:00,
2013-02-07 22:10:00,53.0,46.0,29.81,SW,233,2.0,2.0,77,0.00,,,0.01,Wunderground v.1.15,2013-02-08 03:10:00,
2013-02-07 22:20:00,53.0,47.7,29.83,South,183,1.0,1.0,82,0.44,,,0.03,Wunderground v.1.15,2013-02-08 03:20:00,
2013-02-07 22:30:00,53.1,49.0,29.83,WNW,289,1.0,2.0,86,0.15,,,0.05,Wunderground v.1.15,2013-02-08 03:30:00,
2013-02-07 22:40:00,52.4,48.6,29.83,SW,214,1.0,1.0,87,0.10,,,0.07,Wunderground v.1.15,2013-02-08 03:40:00,
2013-02-07 22:50:00,52.1,49.3,29.83,SW,214,0.0,0.0,90,0.10,,,0.09,Wunderground v.1.15,2013-02-08 03:50:00,
2013-02-07 23:00:00,51.8,49.0,29.83,SW,214,0.0,0.0,90,0.50,,,0.13,Wunderground v.1.15,2013-02-08 04:00:00,
2013-02-07 23:10:00,52.0,49.5,29.83,SW,214,0.0,0.0,91,0.08,,,0.14,Wunderground v.1.15,2013-02-08 04:10:00,
2013-02-07 23:20:00,52.1,49.8,29.83,SW,214,0.0,0.0,92,0.19,,,0.18,Wunderground v.1.15,2013-02-08 04:20:00,
2013-02-07 23:30:00,52.0,49.7,29.83,SW,214,0.0,0.0,92,0.13,,,0.20,Wunderground v.1.15,2013-02-08 04:30:00,
2013-02-07 23:40:00,51.8,49.3,29.83,SW,214,0.0,0.0,91,0.07,,,0.21,Wunderground v.1.15,2013-02-08 04:40:00,
2013-02-07 23:50:00,51.7,49.5,29.84,SW,214,0.0,0.0,92,0.05,,,0.22,Wunderground v.1.15,2013-02-08 04:50:00,